CAPE
4 8 13 16 17 30 36 40 46 45 50 51 50 49 42 53 55 39 45 29 0 0 17 11 20 27 24 21 6 6 5 4 1 1 0 1 0 3 2 1 0 0 14
21 26 20 33 39 37 41 49 51 59 58 65 71 65 66 48 36 15 21 20 13 6 5 24 21 15 5 17 19 6 8 5 1 5 2 0 1 2 2 2 1 1 3
29 33 41 25 24 26 30 56 58 65 65 70 74 67 45 21 18 17 21 22 34 29 4 14 15 11 9 8 12 7 0 6 1 4 1 0 1 0 0 1 1 0 7
28 37 21 27 21 20 29 29 30 34 48 61 66 48 30 21 11 8 19 24 26 25 9 21 18 16 9 8 7 1 2 6 1 0 0 1 0 0 0 1 1 3 3
25 28 29 51 19 22 22 17 12 16 23 38 51 32 21 21 0 0 2 25 33 25 9 18 17 5 3 2 4 7 4 1 1 1 0 0 0 3 0 1 2 1 1
24 30 32 24 31 20 14 21 29 31 30 46 59 60 45 30 0 0 0 21 8 4 11 0 3 9 4 0 1 1 1 1 1 1 1 0 3 0 0 1 1 1 2
23 15 32 32 15 34 23 17 18 12 16 15 17 21 16 16 0 0 0 20 18 8 0 3 13 19 16 3 3 1 4 0 0 0 0 0 1 1 1 2 1 0 2
20 19 18 13 19 33 29 16 13 11 13 18 17 11 3 0 0 0 0 29 29 23 16 14 14 8 3 0 1 3 3 1 1 1 0 0 1 2 4 0 0 0 0
17 19 19 22 19 11 6 0 2 23 29 2 2 2 2 6 0 0 0 23 18 17 18 12 2 3 0 0 2 4 3 3 0 0 0 0 0 0 0 0 1 0 0
15 16 22 22 0 0 1 9 26 14 6 1 1 3 7 3 0 0 0 9 13 3 0 1 1 0 0 0 1 1 1 1 2 1 1 2 5 0 0 0 0 0 0
16 15 16 1 10 18 13 16 9 2 1 0 2 3 4 0 5 0 0 0 0 1 2 1 1 0 0 0 0 1 1 2 2 1 1 3 2 0 3 1 0 4 1
15 17 10 13 12 16 5 2 1 3 1 1 1 4 19 21 0 0 0 0 0 1 1 1 1 0 0 0 0 0 0 1 2 1 2 0 0 0 0 0 0 0 0
17 4 5 16 4 2 2 2 0 1 3 3 4 13 10 10 1 0 0 0 0 1 1 0 1 0 0 0 0 0 0 1 1 1 1 0 0 1 0 0 0 0 0
8 14 19 2 2 1 4 1 0 1 0 2 3 6 6 1 1 0 2 1 0 0 0 0 0 0 0 1 2 0 0 1 0 0 0 0 0 0 0 0 0 0 0
7 5 2 1 1 0 4 1 0 1 1 5 3 2 1 1 0 0 0 2 7 0 7 5 4 4 2 3 2 1 1 0 0 0 0 0 0 0 0 0 0 0 0
2 2 1 1 2 0 0 3 0 0 0 0 0 0 2 0 0 0 0 0 0 0 1 2 3 2 2 1 0 0 0 0 4 6 2 0 0 0 0 0 0 0 2
1 1 0 0 1 2 4 2 4 0 0 0 0 0 0 0 0 0 0 0 0 0 0 0 0 0 10 15 8 0 1 0 0 0 0 0 0 0 0 0 0 0 1
2 0 1 1 1 6 14 10 4 2 3 2 0 0 0 0 0 0 0 0 0 0 0 0 0 0 0 0 0 0 0 0 0 0 0 0 0 3 12 16 22 29 29
2 1 1 1 2 0 1 1 2 2 1 1 0 0 0 0 0 0 0 1 1 4 2 6 8 6 3 1 1 1 1 1 10 24 32 42 48 55 52 43 8 0 5
2 0 3 5 0 0 1 1 1 2 1 2 3 3 12 15 8 0 0 0 8 15 22 18 18 19 20 22 25 32 32 27 26 32 35 32 37 44 39 28 28 33 41
8 4 0 0 1 1 1 1 1 0 0 0 7 0 0 14 16 15 20 28 19 16 11 13 19 20 31 38 46 37 45 50 45 52 47 36 32 30 43 32 25 29 22
6 5 0 0 0 0 0 0 0 0 0 0 0 0 0 3 1 0 0 0 0 0 3 8 12 8 2 4 8 18 16 11 1 6 1 0 0 1 15 20 23 18 6
5 0 0 0 0 1 1 0 0 0 0 0 0 0 0 0 0 0 0 0 0 0 0 0 0 0 0 0 0 0 0 0 0 0 0 0 0 0 0 0 0 0 0
2 3 1 0 0 0 0 0 0 0 0 0 0 0 0 0 0 0 0 0 0 0 0 0 0 0 0 0 0 0 0 0 0 0 0 0 0 0 0 0 0 0 0
0 0 0 0 0 0 0 0 0 0 0 0 0 0 0 0 0 0 0 0 0 0 0 0 0 0 0 0 0 0 0 0 0 0 0 0 0 0 0 0 0 0 0
0 0 0 0 0 0 0 0 0 0 0 0 0 0 0 0 0 0 0 0 0 0 0 0 0 0 0 0 0 0 0 0 0 0 0 0 0 0 0 0 0 0 0
CIN
-1 -1 -1 -0 -0 -1 -0 -1 -0 -1 -1 -0 -0 -1 -1 -0 -1 -0 -0 -2 -0 -11 -1 -1 -1 -1 -1 -1 -1 -4 -1 -0 -0 -0 -0 -0 -0 -0 -0 -0 -0 -0 -0
-1 -1 -1 -1 -1 -0 -0 -1 -1 -1 -1 -1 -0 -0 -1 -1 -0 -0 -1 -2 -0 -4 -2 -0 -1 -1 -2 -1 -1 -1 -1 -0 -0 -0 -0 -0 -0 -0 -0 -0 -0 -0 -0
-1 -1 -1 -1 -2 -1 -0 -0 -1 -0 -1 -0 -0 -0 -1 -2 -0 -1 -1 -2 -2 -0 -1 -1 -1 -0 -1 -1 -1 -1 -3 -0 -0 -0 -0 -0 -0 -0 -0 -0 -0 -0 -0
-2 -1 -1 -1 -1 -1 -1 -1 -2 -1 -1 -1 -0 -0 -0 -1 -1 -1 -0 -2 -3 -0 -1 -0 -0 -0 -1 -0 -1 -0 -0 -0 -0 -0 -0 -0 -0 -0 -0 -0 -0 -0 -0
-2 -1 -1 -1 -0 -2 -4 -1 -1 -0 -1 -1 -0 -4 -1 -1 -0 -0 -6 -0 -1 -0 -1 -0 -0 -2 -0 -0 -0 -0 -0 -0 -0 -0 -0 -0 -0 -0 -0 -0 -0 -0 -0
-2 -2 -1 -1 -2 -1 -1 -0 -0 -1 -1 -1 -0 -1 -2 -1 -0 -0 -0 -0 -4 -0 -0 -0 -1 -1 -3 -1 -0 -0 -0 -0 -0 -0 -0 -0 -3 -0 -0 -0 -0 -0 -0
-2 -5 -2 -1 -4 -1 -1 -1 -0 -0 -1 -1 -0 -1 -1 -0 -0 -0 -0 -0 -0 -0 -0 -0 -0 -0 -0 -0 -0 -0 -0 -0 -0 -0 -0 -1 -0 -0 -0 -0 -0 -0 -0
-2 -2 -2 -2 -1 -1 -1 -1 -1 -0 -0 -0 -0 -0 -0 -0 -0 -0 -0 -1 -0 -0 -0 -0 -0 -4 -0 -0 -0 -0 -0 -0 -0 -0 -0 -0 -0 -0 -0 -0 -0 -0 -0
-1 -1 -1 -1 -1 -1 -2 -0 -1 -1 -0 -1 -0 -0 -1 -0 -0 -0 -0 -2 -0 -1 -0 -1 -0 -0 -0 -0 -0 -0 -0 -0 -0 -0 -0 -0 -0 -0 -0 -0 -0 -0 -0
-2 -1 -1 -0 -0 -0 -0 -1 -0 -0 -0 -0 -0 -0 -0 -0 -0 -0 -0 -2 -1 -1 -0 -0 -0 -0 -0 -0 -0 -0 -0 -0 -0 -0 -0 -0 -0 -0 -0 -0 -0 -0 -0
-1 -1 -1 -1 -0 -0 -0 -0 -0 -0 -0 -0 -1 -0 -0 -0 -0 -0 -0 -0 -0 -0 -0 -0 -0 -0 -0 -0 -0 -0 -0 -0 -0 -0 -0 -0 -0 -0 -0 -0 -0 -0 -0
-1 -0 -0 -0 -0 -0 -0 -0 -0 -0 -0 -0 -0 -0 -0 -0 -0 -0 -0 -0 -0 -0 -0 -0 -0 -0 -0 -0 -0 -0 -0 -0 -0 -0 -0 -0 -0 -0 -0 -0 -0 -0 -0
-1 -2 -0 -0 -0 -0 -0 -0 -0 -0 -0 -0 -0 -2 -0 -1 -0 -0 -0 -0 -0 -0 -0 -0 -0 -0 -0 -0 -0 -0 -0 -0 -0 -0 -0 -0 -0 -0 -0 -0 -0 -0 -0
-0 -0 -0 -0 -0 -0 -0 -0 -0 -0 -0 -0 -0 -0 -0 -0 -0 -0 -0 -0 -0 -0 -0 -0 -0 -0 -0 -0 -0 -0 -0 -0 -0 -0 -0 -0 -0 -0 -0 -0 -0 -0 -0
-0 -0 -0 -0 -0 -0 -0 -0 -0 -0 -0 -0 -0 -0 -0 -0 -0 -0 -0 -0 -0 -0 -0 -0 -0 -0 -0 -0 -0 -0 -0 -0 -0 -0 -0 -0 -0 -0 -0 -0 -0 -0 -0
-0 -0 -0 -0 -0 -0 -0 -0 -0 -0 -0 -0 -0 -0 -0 -0 -0 -0 -0 -0 -0 -0 -0 -0 -0 -0 -0 -0 -0 -0 -0 -0 -0 -1 -1 -0 -0 -0 -0 -0 -0 -0 -1
-0 -0 -0 -0 -0 -0 -3 -0 -0 -0 -0 -0 -0 -0 -0 -0 -0 -0 -0 -0 -0 -0 -0 -0 -0 -0 -0 -1 -1 -0 -1 -0 -0 -0 -0 -0 -0 -0 -0 -0 -0 -0 -1
-0 -0 -0 -0 -0 -0 -0 -0 -0 -0 -0 -0 -0 -0 -0 -0 -0 -0 -0 -0 -0 -0 -0 -0 -0 -0 -0 -1 -0 -0 -1 -1 -0 -0 -0 -0 -1 -3 -2 -2 -1 -1 -1
-0 -0 -0 -0 -0 -0 -0 -0 -0 -0 -0 -0 -0 -0 -0 -0 -0 -0 -0 -0 -0 -0 -1 -1 -2 -3 -2 -2 -10 -16 -22 -24 -14 -2 -2 -1 -1 -1 -1 -2 -5 -0 -21
-0 -0 -1 -0 -0 -0 -0 -0 -0 -0 -0 -0 -0 -0 -4 -6 -13 -10 -0 -0 -1 -2 -3 -2 -2 -3 -2 -1 -1 -1 -2 -10 -10 -5 -12 -19 -6 -1 -1 -1 -1 -2 -1
-1 -0 -1 -0 -0 -0 -0 -0 -0 -0 -0 -0 -1 -0 -0 -3 -3 -3 -3 -2 -2 -3 -3 -1 -3 -2 -1 -1 -2 -2 -1 -1 -1 -1 -1 -2 -1 -3 -2 -1 -1 -3 -2
-0 -1 -0 -0 -0 -0 -0 -0 -0 -0 -0 -0 -0 -0 -0 -2 -2 -1 -0 -0 -1 -0 -2 -2 -1 -3 -1 -2 -2 -1 -1 -2 -0 -1 -1 -0 -0 -0 -2 -3 -2 -2 -3
-1 -0 -0 -0 -1 -0 -0 -0 -0 -0 -0 -0 -3 -0 -0 -0 -0 -0 -0 -0 -0 -0 -0 -0 -0 -0 -0 -0 -0 -0 -0 -0 -0 -0 -0 -0 -0 -0 -0 -0 -1 -0 -0
-0 -1 -1 -0 -0 -3 -0 -0 -0 -0 -0 -0 -0 -0 -0 -0 -0 -0 -0 -0 -0 -0 -0 -0 -0 -0 -0 -0 -0 -0 -0 -0 -0 -0 -0 -0 -0 -0 -0 -0 -0 -0 -0
-0 -0 -0 -0 -2 -0 -0 -0 -0 -0 -0 -0 -0 -0 -0 -0 -0 -0 -0 -0 -0 -0 -0 -0 -0 -0 -0 -0 -0 -0 -0 -0 -0 -0 -0 -0 -0 -0 -0 -0 -0 -0 -0
-0 -0 -0 -0 -0 -0 -0 -0 -0 -0 -0 -0 -0 -0 -0 -0 -0 -0 -0 -0 -0 -0 -0 -0 -0 -0 -0 -0 -0 -0 -0 -0 -0 -0 -0 -0 -0 -0 -0 -0 -0 -0 -0
Wind_Speed
31 31 30 28 26 26 26 26 25 23 23 22 21 20 19 19 18 22 23 22 25 26 26 26 28 28 29 26 22 22 22 19 23 19 18 20 20 21 23 21 19 19 19
29 29 27 26 26 26 26 26 24 24 24 22 21 21 20 20 18 20 22 22 22 23 25 26 28 29 29 26 24 22 23 23 22 10 18 19 20 22 21 19 16 17 19
29 28 26 26 26 26 27 26 25 25 24 24 23 22 21 21 20 22 24 25 23 20 23 25 28 29 29 27 24 21 20 19 19 12 15 14 18 22 16 20 15 15 18
28 26 26 26 27 27 28 27 27 27 26 24 22 22 22 22 22 26 28 28 24 21 23 25 27 29 29 23 20 18 16 15 15 15 17 16 20 15 16 21 17 18 19
27 26 25 26 27 26 26 27 28 28 27 26 23 22 22 20 23 28 29 28 23 22 24 25 26 26 20 18 17 15 14 13 12 16 18 19 19 17 20 22 22 23 21
29 28 27 27 25 25 25 27 28 29 29 27 25 24 23 23 26 29 28 26 21 22 23 24 21 18 17 16 15 14 14 13 12 17 20 21 21 21 20 19 19 20 11
29 28 29 27 26 24 25 27 28 29 29 28 27 26 25 25 29 29 27 25 18 17 18 17 16 15 14 14 14 14 14 15 15 15 21 20 21 21 22 23 22 16 12
31 32 30 28 24 23 26 28 28 30 29 26 27 27 27 24 23 20 18 16 15 14 13 13 13 12 12 13 13 13 11 10 13 21 22 21 20 16 12 14 16 21 17
15 17 28 27 26 27 29 26 20 12 7 21 12 13 5 9 15 11 13 13 13 11 10 9 9 10 10 13 17 13 9 4 15 20 23 23 10 14 18 18 18 19 18
2 2 7 17 25 6 3 2 4 2 8 7 6 7 7 7 7 7 8 9 10 10 9 8 7 10 13 16 17 17 11 7 6 20 22 19 22 20 9 11 16 22 21
9 9 8 10 5 4 3 3 3 3 6 8 10 10 10 10 9 5 6 11 12 14 13 11 12 12 15 16 16 15 15 12 12 22 23 23 26 12 10 10 13 14 18
14 12 8 5 4 3 3 4 3 3 8 13 15 14 15 15 13 12 12 12 14 16 15 15 14 14 13 11 11 11 14 17 20 22 23 20 17 16 11 14 14 17 12
7 7 6 4 4 4 6 7 7 9 13 16 18 18 16 14 13 11 12 13 13 15 15 16 16 15 14 7 6 6 9 11 16 19 18 17 19 21 20 17 18 16 17
7 7 7 8 9 10 11 9 11 12 16 17 19 19 17 16 14 13 13 15 16 17 18 19 19 20 18 15 10 6 8 13 16 17 22 26 24 24 21 23 17 20 18
10 10 10 11 14 14 14 13 16 17 18 19 18 17 17 16 15 16 17 17 17 15 17 16 15 15 15 13 13 13 14 20 27 29 28 25 22 24 24 22 21 21 23
10 12 13 14 15 17 19 22 19 20 18 16 16 17 19 17 16 16 15 15 15 19 21 20 19 18 18 18 18 21 24 24 25 26 27 24 21 20 22 22 20 22 25
12 13 13 14 16 19 20 19 22 22 23 19 16 15 16 18 18 18 18 19 19 21 22 21 22 22 22 25 25 25 24 22 22 22 22 22 23 23 23 25 25 26 26
16 15 14 15 17 19 20 20 20 21 23 21 20 18 18 18 19 20 22 25 23 22 25 27 25 25 26 25 24 23 23 21 21 21 22 23 23 25 25 25 25 24 24
20 20 21 20 21 22 23 23 23 22 22 22 23 22 22 23 24 24 25 28 30 29 28 27 26 25 25 23 22 20 19 19 16 17 17 18 17 18 21 22 23 23 18
21 21 21 22 23 24 24 24 24 24 25 25 23 22 22 27 28 29 28 30 29 28 27 25 23 21 19 19 18 18 18 19 18 19 19 18 17 16 19 18 18 16 17
20 22 22 24 24 24 23 24 25 26 25 23 22 23 22 23 22 23 23 20 19 20 18 18 17 15 15 14 13 13 14 14 14 13 14 14 15 16 15 15 17 18 21
21 21 22 24 24 24 25 26 24 23 22 23 25 23 22 24 23 22 20 18 17 16 14 13 14 13 13 13 11 12 13 12 11 11 12 13 13 15 17 18 20 21 21
21 24 25 23 22 21 19 22 23 23 22 20 20 19 19 19 18 18 18 17 16 15 15 14 13 12 12 12 11 10 11 12 13 11 13 15 19 18 21 22 22 24 25
20 21 20 19 19 19 19 19 18 18 19 19 19 18 18 17 17 16 16 16 16 16 15 15 15 14 13 13 13 14 14 12 13 16 18 20 22 22 23 23 24 24 24
15 18 20 19 16 16 16 20 19 19 18 18 17 17 18 18 18 18 18 18 18 17 16 15 14 15 16 16 16 17 16 16 17 14 22 23 23 25 25 25 25 26 26
17 17 18 16 17 19 18 18 16 16 17 17 17 17 17 17 17 16 16 16 18 18 18 18 15 14 14 15 14 16 18 18 16 13 20 24 25 23 24 25 25 25 26
Wind_Direction
341 341 342 344 346 347 345 345 345 344 344 345 349 351 354 357 1 354 348 346 347 342 338 341 341 339 336 336 345 340 338 352 345 352 339 338 340 343 353 351 342 345 352
343 343 344 346 346 346 346 345 346 345 345 347 349 349 355 0 6 1 351 346 349 349 340 337 332 331 333 336 330 332 308 303 319 99 341 340 350 350 351 348 337 336 359
343 343 344 345 347 347 346 346 346 346 347 344 347 350 355 357 2 355 346 338 340 354 344 328 325 331 330 327 313 295 279 272 265 194 29 120 5 20 333 4 340 349 5
343 344 346 347 346 345 345 345 344 344 343 346 350 354 354 352 357 342 325 317 333 344 342 330 328 329 329 298 277 266 262 258 260 23 72 101 33 345 353 24 356 357 8
345 345 344 345 345 347 348 347 344 343 342 343 348 352 354 359 349 329 319 320 331 338 333 333 326 314 276 270 262 246 239 242 236 47 88 63 67 23 49 63 34 33 19
344 344 344 344 347 348 350 347 344 341 341 345 349 351 353 350 337 318 309 303 342 344 341 329 274 268 273 260 243 226 219 210 202 162 116 99 62 46 38 68 74 75 175
347 342 338 341 345 349 349 343 343 343 345 346 347 346 344 338 324 313 302 301 353 345 269 258 261 258 251 245 232 215 201 194 172 172 118 98 93 80 52 42 38 36 30
335 323 326 342 352 355 347 348 349 342 339 350 348 341 330 307 292 272 250 235 230 228 236 246 251 238 232 222 205 197 215 227 191 117 91 75 94 140 161 149 150 136 147
287 280 329 342 348 351 333 307 286 268 71 26 59 60 182 232 288 249 227 206 212 224 219 239 229 212 205 182 172 184 199 263 19 52 58 57 182 151 135 132 137 145 146
83 142 88 48 10 96 158 181 232 147 86 116 165 154 183 217 232 255 247 213 198 194 195 192 190 178 169 161 162 164 180 193 40 50 93 124 102 105 187 166 150 136 141
85 93 105 93 121 234 217 188 228 201 183 161 147 145 149 152 158 174 170 162 163 161 158 155 154 151 149 151 154 158 165 174 18 54 106 101 67 148 164 175 164 159 145
80 88 100 120 127 157 225 182 181 173 147 137 132 132 132 134 134 138 139 145 148 149 148 146 142 141 142 146 153 161 157 150 135 122 114 121 130 135 153 148 148 140 156
110 107 111 128 147 153 147 143 133 129 130 127 124 127 129 132 134 135 136 140 143 144 146 143 143 142 146 144 158 167 164 162 148 138 139 137 134 131 135 142 138 32 26
123 125 125 124 127 133 130 131 131 129 129 128 126 125 127 128 129 132 134 135 137 140 142 141 139 134 137 139 144 137 142 140 140 143 130 120 124 120 129 126 138 130 129
124 120 122 124 123 124 123 120 124 125 126 127 126 125 127 124 127 128 128 132 136 139 140 141 139 138 136 140 139 136 135 129 111 110 117 126 128 122 118 124 125 122 119
122 122 123 123 121 123 123 119 119 120 123 125 124 125 126 127 128 127 126 129 130 132 129 128 127 127 126 126 128 127 126 124 121 119 115 119 124 125 117 116 120 112 92
127 129 128 123 123 124 125 126 124 121 116 116 119 119 121 125 125 125 123 122 124 127 125 124 124 123 122 120 121 121 122 123 123 121 119 116 113 111 109 97 90 82 79
126 126 124 124 124 124 124 124 123 120 119 118 116 115 115 117 120 122 124 121 119 119 120 121 119 119 118 118 118 117 117 119 118 116 112 108 102 94 84 82 84 84 80
123 122 121 120 120 120 120 120 119 118 117 117 117 116 113 113 115 118 118 117 117 117 117 117 117 116 114 113 113 113 114 112 115 114 111 109 111 106 94 89 80 79 90
126 125 123 122 121 120 119 118 116 116 115 115 114 116 116 116 114 114 115 115 114 113 113 114 114 115 115 113 113 112 110 108 107 105 102 102 103 104 92 94 88 88 77
130 125 123 123 122 121 120 119 118 117 116 114 112 115 118 115 115 116 117 118 117 116 115 115 114 115 114 113 112 112 112 111 111 110 109 106 104 101 100 96 87 80 68
134 130 129 127 126 123 121 120 119 119 118 116 115 112 115 114 115 115 115 116 115 115 114 112 111 109 109 108 107 108 109 108 107 108 105 102 102 96 90 82 74 68 64
138 133 132 130 129 127 125 124 121 120 119 118 117 116 115 115 115 115 114 114 113 112 110 106 104 104 103 102 99 99 104 104 101 100 99 95 87 89 79 75 71 65 60
143 141 139 137 132 128 127 126 123 120 121 120 119 117 116 116 116 114 114 113 112 110 108 106 100 94 95 96 96 94 93 97 99 92 89 86 82 79 76 73 69 65 60
149 145 142 139 139 136 134 132 127 125 123 121 120 119 118 116 115 113 112 110 109 108 104 102 101 97 92 89 87 87 85 86 88 87 80 78 76 71 70 67 62 57 52
151 149 148 149 145 142 139 137 133 130 127 125 123 122 121 119 117 114 112 110 108 105 103 100 95 91 89 85 81 79 79 79 80 80 79 73 69 69 66 60 55 51 47